Simultaneous Nadir Overpasses (SNOs) Predictions

Prediction of SNOs over PacNW region [( 10.00, 139.50) to ( 22.70, 165.60)] between AQUA and NPP Satellites:

Table of predicted SNOs over PacNW region for the next 30.0 days since TLE Epoch: 5/24/2019
Index Date (AQUA) Time (AQUA) AQUA Lat,Lon Date (NPP) Time (NPP) NPP Lat,Lon Distance(km) Time Diff (sec)
1 05/30/2019 15:09:59 22.59, 159.84 05/30/2019 15:11:04 23.18, 157.22 276.74 65
2 06/02/2019 03:31:49 22.65, 147.53 06/02/2019 03:28:20 26.16, 144.84 475.30 209
3 06/07/2019 15:59:24 22.59, 147.48 06/07/2019 16:01:52 23.25, 144.54 310.42 148
4 06/15/2019 15:09:54 22.59, 159.85 06/15/2019 15:11:11 23.19, 157.20 279.29 77
5 06/18/2019 03:31:43 22.66, 147.54 06/18/2019 03:28:14 25.41, 145.02 399.20 209




NCC Satellite Simultaneous Nadir Overpasses (SNOs) Prediction Service
